Starlink 3673

operational
NORAD ID: 52093 Int'l Des: 2022-029 Owner: SPXS Country: US Constellation: starlink
LEOCIRCULAR

关于 Starlink 3673

正在加载描述...

实时位置

正在加载3D地球...

即将过境

高度历史

Altitude vs Time

uPlot chart will show altitude changes over time

两行轨道根数

1 52093U 22029F 25258.99916685 -.00000361 00000-0 -45848-5 0 9995
2 52093 53.2172 153.3463 0001585 86.9593 273.1581 15.08853084194288
Epoch: Sep 15, 2025 • Age: 20 hours

当前状态

高度 541.3 km
速度 7.60 km/s
星下点 33.78°N, 8.97°E
发射日期 Mar 19, 2022
运行时间 3.4 years
类型 internet

技术详情

分类 Payload
质量 297.00 kg
干质量 275.00 kg
总质量 297.00 kg
长度 0.20 m
直径 2.80 m
跨度 9.00 m
形状 Box + pan
制造商 SPXS
平台类型 Starlink
阶段状态 In Orbit
所有者/国家 SPXS/US

大型星座

Loading constellations...